GW5877 Weather Reports


time (UTC)temp
F
wind
direction
speed
knots
gust
knots
rain 1hr
in
rain 24hr
in
rain mn
in
humidity
%
barometer
mb
20260510060855 62 154 1.7 1.7 0.00 0.00 0.00 83 1018.5
20260510060353 62 74 0.9 0.9 0.00 0.00 0.00 83 1018.5
20260510055849 62 78 2.6 2.6 0.00 0.00 0.00 82 1018.0
20260510055349 62 11 1.7 3.5 0.00 0.00 0.00 82 1017.9
20260510054848 62 43 4.3 6.1 0.00 0.00 0.00 83 1017.7
20260510054344 61 103 3.5 7.0 0.00 0.00 0.00 85 1017.7
20260510053839 61 185 1.7 1.7 0.00 0.00 0.00 85 1017.7
20260510053334 61 73 2.6 3.5 0.00 0.00 0.00 86 1017.1
20260510052831 61 148 4.3 6.1 0.00 0.00 0.00 88 1017.3
20260510052327 61 125 2.6 5.2 0.00 0.00 0.00 89 1017.4
20260510051824 62 59 0.9 1.7 0.00 0.00 0.00 89 1017.6
20260510051320 62 229 2.6 3.5 0.00 0.00 0.00 88 1017.4
20260510050818 62 3 5.2 7.0 0.00 0.00 0.00 88 1017.5
20260510050314 63 312 2.6 3.5 0.00 0.00 0.00 88 1017.1
20260510045811 63 132 1.7 1.7 0.00 0.20 0.20 88 1017.2
20260510045307 63 256 1.7 2.6 0.00 0.20 0.20 88 1017.2
20260510044805 63 217 0.9 0.9 0.00 0.20 0.20 87 1017.0
20260510044302 63 47 0.9 0.9 0.07 0.20 0.20 88 1016.3
20260510043758 63 85 4.3 5.2 0.12 0.20 0.20 88 1016.1
20260510043254 64 243 0.9 1.7 0.24 0.19 0.19 86 1017.2
20260510042752 64 29 1.7 3.5 0.54 0.18 0.18 86 1017.4
20260510042247 65 62 1.7 1.7 0.66 0.15 0.15 84 1018.2
20260510041744 66 255 1.7 1.7 0.35 0.09 0.09 80 1019.3
20260510041241 67 261 4.3 6.1 0.24 0.05 0.05 76 1019.2
20260510040739 68 246 2.6 5.2 0.19 0.03 0.03 73 1019.3
20260510040236 70 257 3.5 7.0 0.07 0.01 0.01 66 1018.4
20260510035731 72 258 3.5 3.5 0.00 0.00 0.00 58 1017.9
20260510035226 73 233 1.7 2.6 0.00 0.00 0.00 55 1016.7
20260510034723 74 196 0.9 1.7 0.00 0.00 0.00 52 1016.2
20260510034221 75 42 2.6 3.5 0.00 0.00 0.00 50 1015.8
20260510033716 75 5 1.7 2.6 0.00 0.00 0.00 48 1015.0
20260510033215 75 61 1.7 2.6 0.00 0.00 0.00 47 1014.5
20260510032711 75 80 1.7 1.7 0.00 0.00 0.00 48 1013.9
20260510032207 75 122 3.5 5.2 0.00 0.00 0.00 48 1013.4
20260510031701 75 124 4.3 6.1 0.00 0.00 0.00 48 1012.9
20260510031158 75 110 4.3 5.2 0.00 0.00 0.00 49 1012.6
20260510030652 75 41 3.5 5.2 0.00 0.00 0.00 48 1012.8
20260510030150 75 94 2.6 2.6 0.00 0.00 0.00 48 1012.9
20260510025647 76 109 3.5 3.5 0.00 0.00 0.00 49 1013.0
20260510025144 76 101 3.5 5.2 0.00 0.00 0.00 48 1013.3
20260510024641 77 54 4.3 7.0 0.00 0.00 0.00 47 1013.4
20260510024137 77 213 1.7 2.6 0.00 0.00 0.00 47 1013.3
20260510023633 77 139 1.7 2.6 0.00 0.00 0.00 47 1013.5
20260510023131 77 186 0.0 0.9 0.00 0.00 0.00 47 1013.2
20260510022631 77 191 0.9 0.9 0.00 0.00 0.00 47 1013.1
20260510022126 77 206 0.9 0.9 0.00 0.00 0.00 46 1013.0
20260510021622 77 126 1.7 1.7 0.00 0.00 0.00 46 1012.8
20260510021120 78 129 0.0 0.9 0.00 0.00 0.00 46 1012.7
20260510020613 78 109 2.6 2.6 0.00 0.00 0.00 45 1012.5
20260510020109 78 100 1.7 2.6 0.00 0.00 0.00 45 1012.1
20260510015605 78 120 1.7 1.7 0.00 0.00 0.00 46 1011.8
20260510015102 78 143 0.9 1.7 0.00 0.00 0.00 45 1011.6
20260510014558 78 192 0.9 0.9 0.00 0.00 0.00 45 1011.3
20260510014055 78 268 1.7 1.7 0.00 0.00 0.00 45 1011.4
20260510013549 78 183 0.0 0.9 0.00 0.00 0.00 45 1011.2
20260510013046 78 194 0.9 0.9 0.00 0.00 0.00 44 1011.2
20260510012539 79 170 0.9 1.7 0.00 0.00 0.00 44 1011.3
20260510012036 79 106 0.9 1.7 0.00 0.00 0.00 44 1011.5
20260510011536 79 212 0.0 0.9 0.00 0.00 0.00 43 1011.5
20260510011032 79 206 0.9 0.9 0.00 0.00 0.00 43 1011.3
20260510010528 79 218 0.9 1.7 0.00 0.00 0.00 43 1011.2
20260510010026 79 216 0.0 0.0 0.00 0.00 0.00 44 1011.2
20260510005521 80 199 0.0 0.9 0.00 0.00 0.00 43 1011.2
20260510005019 80 224 0.0 0.0 0.00 0.00 0.00 43 1011.6
20260510004516 80 209 0.9 0.9 0.00 0.00 0.00 44 1011.4
20260510004015 81 227 0.0 0.0 0.00 0.00 0.00 43 1011.5
20260510003510 81 200 0.9 0.9 0.00 0.00 0.00 42 1011.4
20260510003006 81 52 1.7 2.6 0.00 0.00 0.00 43 1011.2
20260510002502 81 188 0.0 0.0 0.00 0.00 0.00 43 1011.3
20260510001959 81 197 1.7 1.7 0.00 0.00 0.00 43 1011.6
20260510001456 82 105 0.9 0.9 0.00 0.00 0.00 42 1011.5
20260510000954 82 207 1.7 1.7 0.00 0.00 0.00 42 1011.6
20260510000449 82 189 0.0 0.9 0.00 0.00 0.00 42 1011.6
20260509235946 82 228 1.7 1.7 0.00 0.00 0.00 41 1011.4
20260509235443 83 100 0.9 1.7 0.00 0.00 0.00 40 1011.4
20260509234940 84 126 0.0 0.9 0.00 0.00 0.00 39 1011.5
20260509234436 85 204 0.0 0.0 0.00 0.00 0.00 39 1011.4
20260509233934 85 236 2.6 3.5 0.00 0.00 0.00 38 1011.5
20260509233432 85 230 0.0 0.9 0.00 0.00 0.00 39 1011.7
20260509232927 85 173 1.7 1.7 0.00 0.00 0.00 37 1011.6
20260509232425 85 234 1.7 1.7 0.00 0.00 0.00 37 1011.5
20260509231921 85 83 2.6 2.6 0.00 0.00 0.00 33 1011.7
20260509231418 86 88 1.7 2.6 0.00 0.00 0.00 33 1011.7
20260509230916 85 172 2.6 5.2 0.00 0.00 0.00 33 1011.6
20260509230413 85 48 2.6 2.6 0.00 0.00 0.00 33 1011.9
20260509225908 85 186 0.9 1.7 0.00 0.00 0.00 34 1011.6
20260509225405 85 108 3.5 5.2 0.00 0.00 0.00 34 1011.8
20260509224901 85 41 0.9 0.9 0.00 0.00 0.00 35 1011.8
20260509224357 85 228 0.9 1.7 0.00 0.00 0.00 34 1012.0
20260509223855 85 238 0.9 0.9 0.00 0.00 0.00 35 1011.9
20260509223351 86 204 0.9 1.7 0.00 0.00 0.00 35 1012.0
20260509222849 86 210 0.9 1.7 0.00 0.00 0.00 31 1012.1
20260509222349 86 120 1.7 2.6 0.00 0.00 0.00 31 1012.3
20260509221844 85 190 1.7 1.7 0.00 0.00 0.00 30 1012.0
20260509221342 85 243 0.9 0.9 0.00 0.00 0.00 31 1012.3
20260509220843 85 206 1.7 2.6 0.00 0.00 0.00 30 1012.6
20260509220339 86 64 2.6 3.5 0.00 0.00 0.00 32 1012.4
20260509215834 85 223 0.9 0.9 0.00 0.00 0.00 32 1012.4
20260509215331 85 139 1.7 2.6 0.00 0.00 0.00 32 1012.4
20260509214828 85 60 1.7 2.6 0.00 0.00 0.00 34 1012.5
20260509214326 86 119 1.7 2.6 0.00 0.00 0.00 32 1012.3
20260509213823 85 112 1.7 1.7 0.00 0.00 0.00 30 1012.4
20260509213318 85 112 1.7 2.6 0.00 0.00 0.00 33 1012.6
20260509212815 86 136 2.6 2.6 0.00 0.00 0.00 33 1012.5
20260509212313 85 116 3.5 3.5 0.00 0.00 0.00 33 1012.6
20260509211808 86 202 1.7 2.6 0.00 0.00 0.00 34 1012.9
20260509211304 86 222 0.0 0.0 0.00 0.00 0.00 34 1012.9
20260509210801 85 218 1.7 2.6 0.00 0.00 0.00 34 1013.0
20260509210259 86 200 0.0 0.0 0.00 0.00 0.00 35 1012.8
20260509205759 86 200 0.9 0.9 0.00 0.00 0.00 35 1013.0
20260509205254 85 233 0.9 0.9 0.00 0.00 0.00 36 1012.9
20260509204750 85 138 0.9 1.7 0.00 0.00 0.00 35 1013.0
20260509204246 85 114 1.7 1.7 0.00 0.00 0.00 36 1013.0
20260509203742 85 62 0.9 1.7 0.00 0.00 0.00 35 1013.1
20260509203241 86 142 0.9 0.9 0.00 0.00 0.00 35 1013.1
20260509202736 86 178 0.0 0.9 0.00 0.00 0.00 35 1013.2
20260509202232 86 200 0.9 0.9 0.00 0.00 0.00 32 1013.3
20260509201726 86 231 0.0 0.0 0.00 0.00 0.00 34 1013.3
20260509201224 85 244 0.0 0.0 0.00 0.00 0.00 34 1013.4
20260509200720 85 232 1.7 2.6 0.00 0.00 0.00 34 1013.4
20260509200215 85 224 0.0 0.9 0.00 0.00 0.00 31 1013.4
20260509195711 85 246 1.7 2.6 0.00 0.00 0.00 30 1013.6
20260509195207 85 230 0.0 0.9 0.00 0.00 0.00 32 1013.8
20260509194706 85 176 0.9 0.9 0.00 0.00 0.00 30 1013.8
20260509194204 85 126 2.6 2.6 0.00 0.00 0.00 34 1013.6
20260509193700 85 201 0.9 0.9 0.00 0.00 0.00 34 1013.9
20260509193155 84 79 0.9 1.7 0.00 0.00 0.00 32 1013.8
20260509192652 83 230 0.0 0.0 0.00 0.00 0.00 33 1013.9
20260509192147 85 142 1.7 1.7 0.00 0.00 0.00 36 1014.1
20260509191647 85 145 1.7 2.6 0.00 0.00 0.00 34 1013.9
20260509191144 84 127 0.0 0.0 0.00 0.00 0.00 34 1014.1
20260509190640 85 25 0.9 1.7 0.00 0.00 0.00 32 1014.0
20260509190138 85 120 1.7 1.7 0.00 0.00 0.00 33 1014.1
20260509185636 84 236 0.0 0.0 0.00 0.00 0.00 30 1014.3
20260509185131 84 253 0.9 1.7 0.00 0.00 0.00 30 1014.3
20260509184629 84 101 0.0 0.9 0.00 0.00 0.00 35 1014.3
20260509184126 84 227 0.0 0.9 0.00 0.00 0.00 34 1014.4
20260509183622 84 231 0.0 0.9 0.00 0.00 0.00 35 1014.4
20260509183117 84 204 0.0 0.0 0.00 0.00 0.00 35 1014.5
20260509182614 83 108 0.0 0.9 0.00 0.00 0.00 38 1014.6
20260509182110 84 220 1.7 2.6 0.00 0.00 0.00 34 1014.7
20260509181609 83 106 1.7 2.6 0.00 0.00 0.00 35 1014.7
20260509181106 84 232 0.9 0.9 0.00 0.00 0.00 35 1014.8
20260509180602 83 245 0.0 0.0 0.00 0.00 0.00 36 1014.8
20260509180059 82 158 1.7 1.7 0.00 0.00 0.00 38 1014.8
20260509175554 82 227 0.0 0.0 0.00 0.00 0.00 40 1015.0
20260509175052 83 239 0.9 1.7 0.00 0.00 0.00 36 1015.4
20260509174548 82 215 1.7 1.7 0.00 0.00 0.00 34 1015.5
20260509174044 81 255 1.7 1.7 0.00 0.00 0.00 33 1015.1
20260509173544 81 231 0.9 0.9 0.00 0.00 0.00 34 1015.5
20260509173040 82 220 0.0 0.0 0.00 0.00 0.00 41 1015.5
20260509172537 81 126 0.9 1.7 0.00 0.00 0.00 43 1015.5
20260509172033 81 235 0.9 0.9 0.00 0.00 0.00 36 1015.6
20260509171529 80 92 1.7 1.7 0.00 0.00 0.00 40 1015.6
20260509171026 81 191 0.9 1.7 0.00 0.00 0.00 41 1015.7
20260509170521 80 240 0.0 0.0 0.00 0.00 0.00 48 1015.6
20260509170017 80 239 0.9 1.7 0.00 0.00 0.00 53 1015.8
20260509165516 80 244 0.9 0.9 0.00 0.00 0.00 50 1015.7
20260509165012 79 192 0.9 0.9 0.00 0.00 0.00 54 1015.8
20260509164508 79 124 0.9 1.7 0.00 0.00 0.00 54 1015.8
20260509164004 78 96 1.7 2.6 0.00 0.00 0.00 56 1015.8
20260509163502 79 245 0.0 0.9 0.00 0.00 0.00 53 1015.9
20260509163001 77 196 0.0 0.9 0.00 0.00 0.00 55 1016.2
20260509162500 77 230 0.9 1.7 0.00 0.00 0.00 58 1016.0
20260509161955 78 236 1.7 1.7 0.00 0.00 0.00 56 1016.1
20260509161452 76 236 0.0 0.9 0.00 0.00 0.00 57 1016.0
20260509160947 75 239 0.0 0.0 0.00 0.00 0.00 58 1016.3
20260509160443 76 235 0.9 0.9 0.00 0.00 0.00 60 1016.1
20260509155938 76 151 1.7 1.7 0.00 0.00 0.00 58 1016.1
20260509155435 76 143 0.9 0.9 0.00 0.00 0.00 57 1015.8
20260509154932 76 231 0.0 0.0 0.00 0.00 0.00 59 1015.9
20260509154428 75 232 0.0 0.0 0.00 0.00 0.00 62 1015.9
20260509153925 74 206 0.0 0.0 0.00 0.00 0.00 61 1015.8
20260509153422 73 230 0.0 0.0 0.00 0.00 0.00 64 1016.0
20260509152919 73 203 0.0 0.9 0.00 0.00 0.00 65 1015.9
20260509152415 73 217 0.0 0.0 0.00 0.00 0.00 64 1015.7
20260509151912 73 181 1.7 2.6 0.00 0.00 0.00 61 1015.7
20260509151408 73 223 0.0 0.0 0.00 0.00 0.00 64 1015.8
20260509150907 73 227 0.0 0.0 0.00 0.00 0.00 66 1015.9
20260509150404 73 245 0.0 0.0 0.00 0.00 0.00 69 1015.7
20260509145902 73 242 0.0 0.0 0.00 0.00 0.00 71 1015.9
20260509145401 72 232 0.0 0.0 0.00 0.00 0.00 73 1015.7
20260509144857 72 234 0.0 0.0 0.00 0.00 0.00 74 1015.7
20260509144354 71 140 0.0 0.9 0.00 0.00 0.00 76 1015.7
20260509143851 70 8 1.7 1.7 0.00 0.00 0.00 76 1015.8
20260509143349 69 227 0.9 0.9 0.00 0.00 0.00 78 1015.7
20260509142845 67 230 0.0 0.9 0.00 0.00 0.00 80 1015.8
20260509142341 66 229 0.0 0.0 0.00 0.00 0.00 84 1015.7
20260509141837 66 259 0.0 0.0 0.00 0.00 0.00 83 1015.9
20260509141334 65 190 0.0 0.0 0.00 0.00 0.00 85 1015.9
20260509140830 64 225 0.0 0.0 0.00 0.00 0.00 90 1016.0
20260509140328 62 239 0.0 0.9 0.00 0.00 0.00 91 1016.0
20260509135826 61 234 0.9 0.9 0.00 0.00 0.00 93 1015.7
20260509135323 61 237 0.9 0.9 0.00 0.00 0.00 94 1015.8
20260509134820 60 238 0.9 0.9 0.00 0.00 0.00 95 1015.6
20260509134317 60 251 0.9 0.9 0.00 0.00 0.00 96 1015.8
20260509133814 60 236 0.0 0.0 0.00 0.00 0.00 96 1015.8
20260509133311 59 246 0.0 0.0 0.00 0.00 0.00 96 1015.7
20260509132809 58 232 0.9 0.9 0.00 0.00 0.00 97 1015.5
20260509132308 58 242 0.0 0.0 0.00 0.00 0.00 97 1015.7
20260509131804 57 239 0.0 0.0 0.00 0.00 0.00 97 1015.5
20260509131301 57 271 0.9 0.9 0.00 0.00 0.00 97 1015.5
20260509130757 57 236 0.0 0.0 0.00 0.00 0.00 97 1015.5
20260509130253 57 237 0.0 0.0 0.00 0.00 0.00 97 1015.1
20260509125750 57 260 0.9 0.9 0.00 0.00 0.00 97 1015.4
20260509125247 57 246 1.7 1.7 0.00 0.00 0.00 97 1015.0
20260509124743 57 237 0.9 0.9 0.00 0.00 0.00 97 1015.1
20260509124239 56 240 0.0 0.0 0.00 0.00 0.00 97 1014.8
20260509123738 56 232 0.0 0.0 0.00 0.00 0.00 97 1015.1
20260509123235 55 233 0.0 0.0 0.00 0.00 0.00 97 1014.8
20260509122730 55 233 0.0 0.0 0.00 0.00 0.00 96 1014.9
20260509122227 55 233 0.0 0.0 0.00 0.00 0.00 96 1014.6
20260509121724 55 232 0.0 0.0 0.00 0.00 0.00 96 1014.8
20260509121222 55 235 0.0 0.0 0.00 0.00 0.00 96 1014.8
20260509120720 54 235 0.0 0.0 0.00 0.00 0.00 96 1014.6
20260509120217 54 236 0.0 0.0 0.00 0.00 0.00 96 1014.7
20260509115715 55 237 0.0 0.0 0.00 0.00 0.00 96 1014.4
20260509115212 55 236 0.9 0.9 0.00 0.00 0.00 96 1014.6
20260509114710 56 237 0.0 0.0 0.00 0.00 0.00 96 1014.5
20260509114209 56 240 0.0 0.0 0.00 0.00 0.00 96 1014.5
20260509113707 56 241 0.0 0.0 0.00 0.00 0.00 96 1014.5
20260509113204 56 249 0.0 0.0 0.00 0.00 0.00 96 1014.2
20260509112700 56 245 0.0 0.0 0.00 0.00 0.00 96 1014.3
20260509112157 56 259 0.0 0.0 0.00 0.00 0.00 96 1014.3
20260509111654 56 244 0.0 0.0 0.00 0.00 0.00 96 1014.4
20260509111151 57 289 0.0 0.0 0.00 0.00 0.00 96 1014.2
20260509110648 57 230 0.0 0.0 0.00 0.00 0.00 96 1014.2
20260509110145 57 231 0.0 0.0 0.00 0.00 0.00 96 1014.1
20260509105643 56 234 0.0 0.0 0.00 0.00 0.00 96 1014.3
20260509105141 56 257 0.0 0.0 0.00 0.00 0.00 96 1014.4
20260509104638 56 237 0.0 0.0 0.00 0.00 0.00 96 1014.2
20260509104134 55 240 0.0 0.0 0.00 0.00 0.00 96 1014.3
20260509103632 55 230 0.0 0.0 0.00 0.00 0.00 96 1014.2
20260509103130 56 217 0.0 0.0 0.00 0.00 0.00 96 1014.2
20260509102627 56 233 0.0 0.0 0.00 0.00 0.00 96 1014.5
20260509102124 56 233 0.0 0.0 0.00 0.00 0.00 96 1014.3
20260509101620 56 233 0.0 0.0 0.00 0.00 0.00 96 1014.4
20260509101117 56 233 0.0 0.0 0.00 0.00 0.00 96 1014.5
20260509100614 56 233 0.0 0.0 0.00 0.00 0.00 96 1014.5
20260509100112 56 233 0.0 0.0 0.00 0.00 0.00 95 1014.6
20260509095608 56 231 0.0 0.0 0.00 0.00 0.00 95 1014.6
20260509095106 57 231 0.0 0.0 0.00 0.00 0.00 95 1014.9
20260509094601 57 231 0.0 0.0 0.00 0.00 0.00 95 1014.7
20260509094059 57 235 0.0 0.0 0.00 0.00 0.00 95 1014.8
20260509093557 57 234 0.0 0.0 0.00 0.00 0.00 95 1014.9
20260509093054 57 243 0.0 0.0 0.00 0.00 0.00 95 1014.9
20260509092552 57 243 0.0 0.0 0.00 0.00 0.00 95 1014.9
20260509092051 57 239 0.0 0.0 0.00 0.00 0.00 95 1014.8
20260509091548 57 235 0.0 0.0 0.00 0.00 0.00 95 1014.7
20260509091044 58 231 0.0 0.0 0.00 0.00 0.00 95 1014.7
20260509090542 58 231 0.0 0.0 0.00 0.00 0.00 95 1014.7
20260509090039 58 231 0.0 0.0 0.00 0.00 0.00 95 1014.9
20260509085536 58 231 0.0 0.0 0.00 0.00 0.00 95 1014.8
20260509085032 58 235 0.0 0.0 0.00 0.00 0.00 95 1014.7
20260509084529 58 237 0.0 0.0 0.00 0.00 0.00 95 1014.6
20260509084026 58 242 0.0 0.0 0.00 0.00 0.00 95 1014.4
20260509083524 58 239 0.0 0.0 0.00 0.00 0.00 95 1014.7
20260509083020 59 240 0.0 0.0 0.00 0.00 0.00 95 1014.6
20260509082518 59 238 0.0 0.0 0.00 0.00 0.00 95 1014.7
20260509082015 59 240 0.0 0.0 0.00 0.00 0.00 94 1014.6
20260509081512 58 231 0.0 0.0 0.00 0.00 0.00 94 1014.6
20260509081009 58 231 0.0 0.0 0.00 0.00 0.00 94 1014.5
20260509080507 58 225 0.0 0.0 0.00 0.00 0.00 94 1014.6
20260509080005 59 229 0.0 0.0 0.00 0.00 0.00 94 1015.0
20260509075502 59 229 0.0 0.0 0.00 0.00 0.00 94 1015.0
20260509074959 59 219 0.0 0.0 0.00 0.00 0.00 94 1015.1
20260509074457 59 229 0.0 0.0 0.00 0.00 0.00 94 1015.3
20260509073953 59 229 0.0 0.0 0.00 0.00 0.00 93 1015.3
20260509073449 59 228 0.0 0.0 0.00 0.00 0.00 93 1015.4
20260509072946 59 228 0.0 0.0 0.00 0.00 0.00 93 1015.4
20260509072443 59 232 0.0 0.0 0.00 0.00 0.00 93 1015.0
20260509071939 59 232 0.0 0.0 0.00 0.00 0.00 92 1015.4
20260509071436 60 214 0.0 0.0 0.00 0.00 0.00 92 1015.5
20260509070934 60 230 0.0 0.0 0.00 0.00 0.00 92 1015.5
20260509070431 60 237 0.0 0.0 0.00 0.00 0.00 92 1015.5
20260509065926 60 243 0.0 0.0 0.00 0.00 0.00 91 1015.3
20260509065422 61 238 0.0 0.0 0.00 0.00 0.00 91 1015.4
20260509064919 61 244 0.9 0.9 0.00 0.00 0.00 91 1015.0
20260509064416 60 230 0.0 0.0 0.00 0.00 0.00 91 1015.1
20260509063914 61 226 0.0 0.0 0.00 0.00 0.00 91 1015.1
20260509063409 61 198 0.0 0.0 0.00 0.00 0.00 90 1015.1
20260509062907 61 223 0.0 0.0 0.00 0.00 0.00 90 1015.4
20260509062404 61 215 0.0 0.0 0.00 0.00 0.00 90 1015.4
20260509061901 61 223 0.0 0.0 0.00 0.00 0.00 89 1015.6
20260509061359 62 219 0.0 0.0 0.00 0.00 0.00 89 1015.3